Lexington Weather

Lexington, Massachusetts, USA

34°F
4/16/2021 10:33am 
  • Lexington Conditions: Snow, Fog, Overcast
  • Temperature: 34.0°F / 1.1°C 
  • Dew Point: 32.7°F 
  • Relative Humidity: 95
  • Wind: Calm, 10-min avg: Calm, gust: None
  • Barometer: 29.48 in Steady
  • Visibility: ½ mile
  • Snow Today: 1.3 in
  •   

Regional Weather Roundup
for Boston / Norton, MA

        
000
ASUS41 KBOX 151004
RWRBOX

REGIONAL WEATHER ROUNDUP
NATIONAL WEATHER SERVICE BOSTON/NORTON MA
600 AM EDT THU APR 15 2021

NOTE:  "FAIR" INDICATES FEW OR NO CLOUDS BELOW 12,000 FEET WITH NO 
SIGNIFICANT WEATHER AND/OR OBSTRUCTIONS TO VISIBILITY.

MAZALL-151100-
EASTERN MASSACHUSETTS
  
CITY           SKY/WX    TMP DP  RH WIND       PRES   REMARKS
BOSTON         MOCLDY    44  37  76 S6        29.89F                  
BEVERLY        NOT AVBL                                               
LAWRENCE       PTCLDY    44  39  82 CALM      29.90F                  
BEDFORD        PTCLDY    42  37  82 CALM      29.87F                  
BLUE HILL        N/A     42  37  82 SE8       29.85F                  
NORWOOD        CLOUDY    45  39  79 SE3       29.88F                  
MARSHFIELD     MOCLDY    45  39  81 CALM      29.89S                  
PLYMOUTH       CLOUDY    43  38  82 SE3       29.88F                  
TAUNTON          N/A    N/A N/A N/A MISG      29.88F                  
NEW BEDFORD      N/A     45  38  76 SE3       29.87F                  
$$

MAZALL-151100-
CAPE COD AND THE ISLANDS
  
CITY           SKY/WX    TMP DP  RH WIND       PRES   REMARKS
FALMOUTH       MOCLDY    43  39  87 SE6       29.89F                  
HYANNIS        CLOUDY    45  39  79 CALM      29.88F                  
CHATHAM        PTCLDY    41  38  89 CALM      29.91F                  
PROVINCETOWN   CLEAR     36  34  92 CALM      29.91F                  
NANTUCKET      PTCLDY    40  37  89 SE7       29.90S                  
MARTHAS VNYRD  CLOUDY    44  40  85 SE7       29.88F                  
$$
 
MAZALL-151100-
CENTRAL AND WESTERN MASSACHUSETTS
  
CITY           SKY/WX    TMP DP  RH WIND       PRES   REMARKS
WORCESTER      CLOUDY    44  38  79 SE7       29.84F                  
FITCHBURG      CLOUDY    46  40  79 SE6       29.86F                  
ORANGE         CLOUDY    46  40  79 E6        29.84F                  
SPRINGFIELD    CLOUDY    47  41  79 E5        29.82F                  
WESTFIELD      CLOUDY    47  42  83 CALM      29.82F                  
NORTH ADAMS    CLOUDY    49  44  83 VRB6      29.79S                  
PITTSFIELD     LGT RAIN  46  43  89 E5        29.77S                  
$$
 
RIZALL-151100-
RHODE ISLAND
  
CITY           SKY/WX    TMP DP  RH WIND       PRES   REMARKS
PROVIDENCE     CLOUDY    46  39  76 SE6       29.87F                  
NEWPORT        CLOUDY    44  39  82 SE8       29.86F                  
BLOCK ISLAND   CLOUDY    44  41  89 SE13      29.85F                  
SMITHFIELD     CLOUDY    44  40  85 SE5       29.87F                  
WESTERLY       CLOUDY    43  40  89 E8        29.85F                  
$$
 
CTZALL-151100-
CONNECTICUT
  
CITY           SKY/WX    TMP DP  RH WIND       PRES   REMARKS
BRADLEY INTL   CLOUDY    47  42  83 VRB6      29.82F                  
HARTFORD       CLOUDY    49  41  74 E5        29.82F                  
BRIDGEPORT     LGT RAIN  47  45  93 E14       29.80S FOG              
DANBURY        CLOUDY    51  46  83 E5        29.80S                  
GROTON         CLOUDY    46  42  86 E17       29.83F                  
NEW HAVEN      CLOUDY    50  46  86 NE7       29.80F                  
CHESTER        CLOUDY    46  45  93 VRB3G12   29.82S                  
MERIDEN        CLOUDY    48  43  82 E5        29.81F                  
WILLIMANTIC    CLOUDY    46  40  79 E5        29.84F                  
OXFORD         LGT RAIN  46  32  58 E5        29.80S                  
$$

MEZ002-015-021-024-NHZ003-005-008-011-012-014-VTZ005-008-151100-
NORTHERN NEW ENGLAND
  
CITY           SKY/WX    TMP DP  RH WIND       PRES   REMARKS
PORTLAND ME    MOCLDY    40  39  97 CALM      29.91S                  
BANGOR ME      PTCLDY    31  29  92 CALM      29.92S                  
CONCORD NH     PTCLDY    41  37  86 E3        29.88F                  
MANCHESTER NH  MOCLDY    44  38  79 SE3       29.86F                  
NASHUA NH      MOCLDY    41  41 100 CALM      29.88F                  
PORTSMOUTH NH  PTCLDY    42  40  92 E3        29.90F                  
JAFFREY NH     CLOUDY    43  38  82 CALM      29.84F                  
KEENE NH       CLOUDY    45  39  79 CALM      29.85S                  
BURLINGTON VT  CLOUDY    53  44  71 S6        29.75F                  
MT. WASHINGTON FOG       32  32 100 S16         N/A  VSB 1/16WCI  21  
$$

NYZ052-076-151100-
EASTERN NEW YORK
  
CITY           SKY/WX    TMP DP  RH WIND       PRES   REMARKS
ALBANY         CLOUDY    50  41  71 W6        29.76R                  
NEW YORK CITY  CLOUDY    50  46  86 NE8       29.78F                  
$$
 
ANZALL-151100-
MARINE OBSERVATIONS
  
STATION/POSITION TIME  TEMP    WIND        PRES    VSBY  WAVE
                       AIR SEA DIR/SP/G                  HT/PER
                 (UTC) (F)     (DEG/KT/KT) (MB)    (MI)  (FT/S)
BOSTON BUOY      0940   44 45  150/  6/  8 1012.8F
BUZZARDS BAY     0900          120/ 13/ 14 1012.8F
NANTUCKET SOUND  0940      47                N/A
MASS BAY-STELLWA 0904   45     190/  6/  8 1011.5F  1 7/8  4/11
ISLE OF SHOALS   0900   44     190/  8/  9 1012.1F
S OF BLOCK IS    0926      45                N/A           4/12
$$

......................KEY.........................
  SKY/WX - SKY CONDITION/PRESENT WEATHER
  TMP    - TEMPERATURE IN FAHRENHEIT
  DWPT   - DEWPOINT IN FAHRENHEIT
  RH     - RELATIVE HUMIDITY IN PERCENT
  WIND   - DIRECTION AND SPEED IN MPH
  PRES   - MEAN SEA LEVEL PRESSURE IN INCHES OF HG
  WCI    - WIND CHILL INDEX
  VSB    - VISIBILITY IN MILES
  HX     - HEAT INDEX
  TC     - TEMPERATURE IN CELSIUS
  VRB    - VARIABLE WIND DIRECTION
  N/A    - NOT AVAILABLE
  
      

Other recent Regional Weather Roundups

Fri Apr 16, 10:05am

Fri Apr 16, 9:04am

Fri Apr 16, 8:04am

Fri Apr 16, 7:04am

Fri Apr 16, 6:04am

Fri Apr 16, 5:04am

Fri Apr 16, 4:04am

Fri Apr 16, 3:04am

Fri Apr 16, 2:04am

Fri Apr 16, 1:04am

Fri Apr 16, 12:04am

Thu Apr 15, 11:05pm

Thu Apr 15, 10:04pm

Thu Apr 15, 9:04pm

Thu Apr 15, 8:04pm

Thu Apr 15, 7:05pm

Thu Apr 15, 6:04pm

Thu Apr 15, 5:05pm

Thu Apr 15, 4:04pm

Thu Apr 15, 3:05pm

Thu Apr 15, 2:04pm

Thu Apr 15, 1:05pm

Thu Apr 15, 12:04pm

Thu Apr 15, 11:04am

Thu Apr 15, 10:05am

Thu Apr 15, 9:04am

Thu Apr 15, 8:04am

Thu Apr 15, 7:04am

Thu Apr 15, 5:04am

Thu Apr 15, 4:04am

Thu Apr 15, 3:04am

Thu Apr 15, 2:04am

Thu Apr 15, 1:04am

Thu Apr 15, 12:04am

Wed Apr 14, 11:04pm

Wed Apr 14, 10:04pm

Wed Apr 14, 9:04pm

Wed Apr 14, 8:04pm

Wed Apr 14, 7:04pm

Wed Apr 14, 6:04pm

Wed Apr 14, 5:05pm

Wed Apr 14, 4:04pm

Wed Apr 14, 3:05pm

Wed Apr 14, 2:04pm

Wed Apr 14, 1:05pm

Wed Apr 14, 12:04pm

Wed Apr 14, 11:04am

Wed Apr 14, 10:04am

Wed Apr 14, 9:04am

Wed Apr 14, 8:04am

Wed Apr 14, 7:04am

Wed Apr 14, 6:04am

Wed Apr 14, 5:04am

Wed Apr 14, 4:04am

Wed Apr 14, 3:04am

Wed Apr 14, 2:04am

Wed Apr 14, 1:04am

Wed Apr 14, 12:04am

Tue Apr 13, 11:04pm

Tue Apr 13, 10:05pm

Tue Apr 13, 9:05pm

Tue Apr 13, 8:05pm

Tue Apr 13, 7:04pm

Tue Apr 13, 6:04pm

Tue Apr 13, 5:05pm

Tue Apr 13, 4:04pm

Tue Apr 13, 3:04pm

Tue Apr 13, 2:05pm

Tue Apr 13, 1:04pm

Tue Apr 13, 12:05pm

Tue Apr 13, 11:05am

Tue Apr 13, 10:04am

Tue Apr 13, 9:04am

Tue Apr 13, 8:04am

Tue Apr 13, 7:04am

Tue Apr 13, 6:04am

Tue Apr 13, 5:04am

Tue Apr 13, 4:04am

Tue Apr 13, 3:04am

Tue Apr 13, 2:04am

Tue Apr 13, 1:04am

Tue Apr 13, 12:05am

Mon Apr 12, 11:04pm

Mon Apr 12, 10:04pm

Mon Apr 12, 9:04pm

Mon Apr 12, 8:04pm

Mon Apr 12, 7:05pm

Mon Apr 12, 6:04pm

Mon Apr 12, 5:04pm

Mon Apr 12, 4:04pm

Mon Apr 12, 3:05pm

Mon Apr 12, 2:04pm

Mon Apr 12, 1:05pm

Mon Apr 12, 12:04pm

Mon Apr 12, 11:04am

Mon Apr 12, 10:04am

Mon Apr 12, 9:04am

Mon Apr 12, 8:04am

Mon Apr 12, 7:04am

Mon Apr 12, 6:04am

Mon Apr 12, 5:04am

Mon Apr 12, 4:04am

Mon Apr 12, 3:04am

Mon Apr 12, 2:04am

Mon Apr 12, 1:05am

Mon Apr 12, 12:04am

Sun Apr 11, 11:04pm

Sun Apr 11, 10:04pm

Sun Apr 11, 9:04pm

Sun Apr 11, 8:04pm

Sun Apr 11, 7:04pm

Sun Apr 11, 6:05pm

Sun Apr 11, 5:05pm

Sun Apr 11, 4:04pm

Sun Apr 11, 3:05pm

Sun Apr 11, 2:05pm

Sun Apr 11, 1:05pm

Sun Apr 11, 12:04pm

Sun Apr 11, 11:05am

Sun Apr 11, 10:05am

Sun Apr 11, 9:04am

Sun Apr 11, 8:04am

Sun Apr 11, 7:04am

Sun Apr 11, 6:04am

Sun Apr 11, 5:04am

Sun Apr 11, 4:04am

Sun Apr 11, 3:04am

Sun Apr 11, 2:04am

Sun Apr 11, 1:05am

Sun Apr 11, 12:04am

Sat Apr 10, 11:05pm

Sat Apr 10, 10:04pm

Sat Apr 10, 9:04pm

Sat Apr 10, 8:04pm

Sat Apr 10, 7:05pm

Sat Apr 10, 6:04pm

Sat Apr 10, 5:04pm

Sat Apr 10, 4:04pm

Sat Apr 10, 3:04pm

Sat Apr 10, 2:05pm

Sat Apr 10, 1:04pm

Sat Apr 10, 12:04pm

Sat Apr 10, 11:04am

Sat Apr 10, 10:04am

Sat Apr 10, 9:04am

Sat Apr 10, 8:04am

Sat Apr 10, 7:04am

Sat Apr 10, 6:04am

Sat Apr 10, 5:04am

Sat Apr 10, 4:04am

Sat Apr 10, 3:04am

Sat Apr 10, 2:04am

Sat Apr 10, 1:05am

Sat Apr 10, 12:04am

Fri Apr 9, 11:04pm

Fri Apr 9, 10:05pm

Fri Apr 9, 9:04pm

Fri Apr 9, 8:05pm

Fri Apr 9, 7:05pm

Fri Apr 9, 6:04pm

Fri Apr 9, 5:04pm

Fri Apr 9, 4:05pm

Fri Apr 9, 3:05pm

Fri Apr 9, 2:04pm

Fri Apr 9, 1:04pm

Fri Apr 9, 12:04pm

Fri Apr 9, 11:05am

Meta data:

ID: c9127258-18fc-45fe-9ce7-21b87729b49b
Link: https://api.weather.gov/products/c9127258-18fc-45fe-9ce7-21b87729b49b